Find Starlink 30238

NORAD ID: 57296 Int'l Des: 2023-096 Owner: SPXS Country: US Constellation: starlink decayed
LEOCIRCULAR
Vis

Historical Track — Feb 25, 2026

Loading 3D Globe...

About Starlink 30238

Description loading...

Altitude History

Loading altitude history...

Two-Line Element Set

1 57296U 23096G 26055.85190638 .06797521 89360-5 43565-2 0 9990
2 57296 42.9662 211.0200 0023351 319.9929 39.9234 16.15839060146653
Epoch: Feb 24, 2026 • Age: 1238 hours

Current Status

Position data unavailable
Launch Date Jul 10, 2023
Age 2.7 years
Decay Date Feb 25, 2026
Type internet

Technical Details

Classification Payload
Mass 730.00 kg
Dry Mass 700.00 kg
Total Mass 730.00 kg
Length 0.30 m
Diameter 4.10 m
Span 29.00 m
Shape Box + pan
Manufacturer SPXS
Bus Type Starlink V2M
Phase Status Unknown Transfer Status
Owner/State SPXS/US

Most Searched